Weather History for KLFK - October, 2013

Change the Weather History Date:

Sunday, October 6, 2013

  Actual Average Record
Temperature  
Mean Temperature 66 °F 71 °F  
Max Temperature 80 °F 83 °F 97 °F (1909)
Min Temperature 52 °F 59 °F 37 °F (1985)
Degree Days  
Heating Degree Days 0 1  
Month to date heating degree days 0 6  
Since 1 July heating degree days 0 10  
Cooling Degree Days 1 7  
Month to date cooling degree days 80 44  
Year to date cooling degree days 2713 2441  
Growing Degree Days 16 (Base 50)    
Moisture  
Dew Point 45 °F    
Average Humidity 49    
Maximum Humidity 77    
Minimum Humidity 21    
Precipitation  
Precipitation T in 0.14 in 1.75 in (1930)
Month to date precipitation 0.12 0.78  
Year to date precipitation 30.37 35.45  
Snow  
Snow 0.00 in - - ()
Month to date snowfall 0.0  
Since 1 July snowfall 0.0  
Since 1 September snowfall 0.0  
Snow Depth 0.00 in    
Sea Level Pressure  
Sea Level Pressure 30.02 in    
Wind  
Wind Speed 5 mph (NW)    
Max Wind Speed 15 mph    
Max Gust Speed 21 mph    
Visibility 10 miles    
Events      
T = Trace of Precipitation, MM = Missing Value Source: NWS Daily Summary

Daily Weather History Graph

Daily Weather History Graph

Search for Another Location

Airport or City:

Trip Planner

Search our weather history database for the weather conditions in past years. The results will help you decide how hot, cold, wet, or windy it might be!

Date:

Astronomy

Oct. 06, 2013 Rise Set
Actual Time 7:16 AM CDT 6:57 PM CDT
Civil Twilight 6:51 AM CDT 7:21 PM CDT
Nautical Twilight 6:23 AM CDT 7:49 PM CDT
Astronomical Twilight 5:55 AM CDT 8:17 PM CDT
Moon 8:52 AM CDT 8:07 PM CDT
Length of Visible Light 12h 29m
Length of Day
11h 41m
Waxing Crescent, 3% of the Moon is Illuminated
Oct 6
Waxing Crescent
Oct 11
First Quarter
Oct 18
Full
Oct 26
Last Quarter
Nov 3
New

Hourly Weather History & Observations

Time (CDT) Temp. Dew Point Humidity Pressure Visibility Wind Dir Wind Speed Gust Speed Precip Events Conditions
12:53 AM 63.0 °F 53.1 °F 70% 29.99 in 10.0 mi NNW 6.9 mph - N/A   Clear
1:53 AM 62.1 °F 50.0 °F 65% 29.99 in 10.0 mi NNW 8.1 mph - N/A   Partly Cloudy
2:53 AM 60.1 °F 48.9 °F 67% 29.99 in 10.0 mi NNW 5.8 mph - N/A   Clear
3:53 AM 60.1 °F 46.9 °F 62% 29.97 in 10.0 mi North 5.8 mph - N/A   Clear
4:53 AM 59.0 °F 46.0 °F 62% 29.99 in 10.0 mi NNW 5.8 mph - N/A   Clear
5:53 AM 57.9 °F 46.9 °F 67% 30.01 in 10.0 mi Calm Calm - N/A   Clear
6:53 AM 59.0 °F 46.9 °F 64% 30.03 in 10.0 mi NNW 5.8 mph - N/A   Overcast
7:53 AM 59.0 °F 48.0 °F 67% 30.06 in 10.0 mi WNW 6.9 mph - N/A   Mostly Cloudy
8:53 AM 60.1 °F 48.9 °F 67% 30.07 in 10.0 mi NW 5.8 mph - N/A   Mostly Cloudy
9:53 AM 61.0 °F 50.0 °F 67% 30.09 in 10.0 mi WNW 3.5 mph - 0.00 in   Partly Cloudy
10:53 AM 64.9 °F 50.0 °F 58% 30.09 in 10.0 mi NNW 8.1 mph - N/A   Clear
11:53 AM 72.0 °F 46.9 °F 41% 30.08 in 10.0 mi North 9.2 mph - N/A   Clear
12:53 PM 75.0 °F 45.0 °F 34% 30.05 in 10.0 mi NW 6.9 mph - N/A   Clear
1:53 PM 75.9 °F 42.1 °F 30% 30.02 in 10.0 mi Variable 6.9 mph 17.3 mph N/A   Clear
2:53 PM 79.0 °F 43.0 °F 28% 29.99 in 10.0 mi NNW 8.1 mph - N/A   Clear
3:53 PM 79.0 °F 39.0 °F 24% 29.97 in 10.0 mi NW 12.7 mph 19.6 mph N/A   Clear
4:53 PM 78.1 °F 36.0 °F 22% 29.97 in 10.0 mi WNW 9.2 mph 18.4 mph N/A   Clear
5:53 PM 75.9 °F 35.1 °F 23% 29.98 in 10.0 mi NW 8.1 mph 16.1 mph N/A   Clear
6:53 PM 70.0 °F 39.0 °F 32% 30.00 in 10.0 mi NNW 4.6 mph - N/A   Clear
7:53 PM 66.0 °F 42.1 °F 42% 30.02 in 10.0 mi NW 3.5 mph - N/A   Clear
8:53 PM 61.0 °F 45.0 °F 56% 30.04 in 10.0 mi Calm Calm - N/A   Clear
9:53 PM 57.0 °F 46.0 °F 67% 30.06 in 10.0 mi Calm Calm - N/A   Clear
10:53 PM 54.0 °F 46.0 °F 75% 30.06 in 10.0 mi Calm Calm - N/A   Clear
11:53 PM 53.1 °F 45.0 °F 74% 30.07 in 10.0 mi Calm Calm - N/A   Clear